This demonstration page uses our WeatherBlox Daily Observations layout. Learn more.

Left ArrowRight Arrow

39.01783, -85.05884

Hourly Observations for July 3, 2020

Temp ( °F °C ) Dew Point ( °F °C ) Humidity (%) Winds ( mph kmh ) Pressure ( in mb ) Visibility ( mi km ) Precip ( " mm )
12:52 am 00:52 Clear 77 25 62 16.7 60 60 Calm 29.97 1015 10 16 0.00 0.00
1:52 am 01:52 Clear 74 23.3 62 16.7 67 67 Calm 29.98 1015 10 16 0.00 0.00
2:52 am 02:52 Clear 71 21.7 62 16.7 73 73 NW 3 6 29.98 1015 10 16 0.00 0.00
3:52 am 03:52 Clear 72 22.2 62 16.7 71 71 NNW 3 6 29.98 1015 10 16 0.00 0.00
4:52 am 04:52 Mostly Clear 69 20.6 63 17.2 81 81 Calm 29.99 1016 10 16 0.00 0.00
5:52 am 05:52 Mostly Clear 68 20 63 17.2 84 84 N 5 7 29.99 1016 10 16 0.00 0.00
6:52 am 06:52 Mostly Cloudy 70 21.1 63 17.2 79 79 NNW 5 7 30.00 1016 10 16 0.00 0.00
7:52 am 07:52 Mostly Cloudy 74 23.3 65 18.3 74 74 Calm 30.01 1016 7 11 0.00 0.00
8:52 am 08:52 Mostly Cloudy 80 26.7 64 17.8 58 58 Calm 30.01 1016 7 11 0.00 0.00
9:52 am 09:52 Mostly Cloudy 82 27.8 66 18.9 58 58 Calm 30.02 1017 8 13 0.00 0.00
10:52 am 10:52 Mostly Cloudy 86 30 64 17.8 48 48 NW 5 7 30.01 1016 8 13 0.00 0.00
11:52 am 11:52 Mostly Cloudy 88 31.1 63 17.2 43 43 Calm 30.01 1016 9 14 0.00 0.00
12:52 pm 12:52 Partly Cloudy 88 31.1 60 15.6 39 39 VRB 5 7 30.00 1016 9 14 0.00 0.00
1:52 pm 13:52 Mostly Cloudy 89 31.7 62 16.7 41 41 NE 6 9 29.99 1016 9 14 0.00 0.00
2:52 pm 14:52 Mostly Cloudy 90 32.2 60 15.6 37 37 N 8 13 29.98 1015 9 14 0.00 0.00
3:52 pm 15:52 Mostly Cloudy 88 31.1 59 15 38 38 NNW 8 13 29.96 1015 8 13 0.00 0.00
4:52 pm 16:52 Cloudy 89 31.7 61 16.1 39 39 NNW 8 13 29.95 1014 8 13 0.00 0.00
5:52 pm 17:52 Mostly Cloudy 88 31.1 61 16.1 40 40 NW 8 13 29.94 1014 8 13 0.00 0.00
6:52 pm 18:52 Mostly Cloudy 89 31.7 63 17.2 42 42 N 8 13 29.93 1014 8 13 0.00 0.00
7:52 pm 19:52 Mostly Cloudy 86 30 64 17.8 48 48 N 7 11 29.92 1013 8 13 0.00 0.00
8:52 pm 20:52 Mostly Cloudy 85 29.4 63 17.2 48 48 NNW 6 9 29.93 1013 8 13 0.00 0.00
9:52 pm 21:52 Partly Cloudy 82 27.8 63 17.2 53 53 NNW 5 7 29.95 1014 9 14 0.00 0.00
10:52 pm 22:52 Partly Cloudy 78 25.6 64 17.8 62 62 WNW 5 7 29.96 1015 10 16 0.00 0.00
11:52 pm 23:52 Clear 75 23.9 64 17.8 69 69 Calm 29.96 1015 10 16 0.00 0.00

Powered by AerisWeather